Location: *
(41.7492°S, 135.4150°W)
Time: 22:50:18
(UTC+00:00)

METEOR M2 - Pass Details

Date: 11 July 2022
Orbit: 818 x 827 km, 98.4° (Epoch: 17 August)

Event Time Altitude Azimuth Distance (km) Brightness Sun altitude
Rises 15:48:26 0° 352° (N) 3,343 ? -7.3°
Reaches altitude 10° 15:50:57 10° 343° (NNW) 2,418 ? -6.8°
Maximum altitude 15:55:51 36° 277° (W) 1,293 ? -6.0°
Drops below altitude 10° 16:00:48 10° 211° (SSW) 2,446 ? -5.2°
Sets 16:03:23 0° 202° (SSW) 3,386 ? -4.7°
